RPA5814 KBOS-KJFK

Flight info

Callsign RPA5814
Flight time 0h 48m
Altitude 20000
Route SSOXS7 SSOXS BUZRD SEY PARCH4
Aircraft E175/M-SDE3GILORVW/S

Departure

Time 2026-05-06 23:33
Airport Boston Logan International Airport (KBOS)

Arrival

Time 2026-05-07 00:22
Airport John F. Kennedy International Airport (KJFK)
Time Latitude Longitude Altitude Speed Heading
2026-05-06 23:16 42.36353 -71.02165 23 ft 0 kts 39°
2026-05-06 23:20 42.36352 -71.02166 33 ft 2 kts 39°
2026-05-06 23:20 42.36333 -71.02190 23 ft 4 kts 48°
2026-05-06 23:21 42.36319 -71.02220 25 ft 4 kts 69°
2026-05-06 23:21 42.36318 -71.02250 23 ft 2 kts 120°
2026-05-06 23:21 42.36319 -71.02252 23 ft 2 kts 121°
2026-05-06 23:23 42.36313 -71.02239 23 ft 3 kts 123°
2026-05-06 23:23 42.36291 -71.02198 23 ft 8 kts 123°
2026-05-06 23:23 42.36285 -71.02123 23 ft 4 kts 81°
2026-05-06 23:24 42.36285 -71.02122 23 ft 0 kts 81°
2026-05-06 23:25 42.36286 -71.02114 23 ft 4 kts 81°
2026-05-06 23:25 42.36305 -71.02054 24 ft 9 kts 41°
2026-05-06 23:25 42.36328 -71.02044 23 ft 1 kts 358°
2026-05-06 23:25 42.36333 -71.02069 26 ft 11 kts 256°
2026-05-06 23:26 42.36269 -71.02203 24 ft 18 kts 243°
2026-05-06 23:26 42.36210 -71.02331 23 ft 14 kts 231°
2026-05-06 23:26 42.36132 -71.02345 23 ft 11 kts 165°
2026-05-06 23:26 42.36061 -71.02299 23 ft 11 kts 144°
2026-05-06 23:27 42.36012 -71.02213 24 ft 12 kts 122°
2026-05-06 23:27 42.35969 -71.02113 23 ft 13 kts 123°
2026-05-06 23:27 42.35917 -71.02001 23 ft 15 kts 118°
2026-05-06 23:27 42.35863 -71.01870 23 ft 17 kts 110°
2026-05-06 23:28 42.35835 -71.01714 23 ft 17 kts 102°
2026-05-06 23:28 42.35834 -71.01594 26 ft 11 kts 53°
2026-05-06 23:28 42.35907 -71.01540 23 ft 13 kts 20°
2026-05-06 23:28 42.36004 -71.01493 23 ft 16 kts 20°
2026-05-06 23:29 42.36119 -71.01438 23 ft 19 kts 18°
2026-05-06 23:29 42.36249 -71.01374 23 ft 21 kts 19°
2026-05-06 23:29 42.36396 -71.01306 23 ft 24 kts 20°
2026-05-06 23:29 42.36558 -71.01225 23 ft 26 kts 20°
2026-05-06 23:30 42.36705 -71.01155 23 ft 17 kts 20°
2026-05-06 23:30 42.36818 -71.01190 23 ft 19 kts 318°
2026-05-06 23:30 42.36898 -71.01218 23 ft 7 kts 41°
2026-05-06 23:30 42.36954 -71.01148 23 ft 15 kts 39°
2026-05-06 23:31 42.37069 -71.01058 23 ft 23 kts 25°
2026-05-06 23:31 42.37231 -71.00952 23 ft 27 kts 26°
2026-05-06 23:31 42.37410 -71.00855 23 ft 29 kts 21°
2026-05-06 23:31 42.37604 -71.00758 23 ft 31 kts 19°
2026-05-06 23:32 42.37781 -71.00675 23 ft 18 kts 18°
2026-05-06 23:32 42.37830 -71.00579 23 ft 13 kts 104°
2026-05-06 23:32 42.37773 -71.00491 25 ft 14 kts 181°
2026-05-06 23:32 42.37677 -71.00530 23 ft 18 kts 198°
2026-05-06 23:33 42.37517 -71.00606 24 ft 33 kts 200°
2026-05-06 23:33 42.37174 -71.00771 23 ft 80 kts 199°
2026-05-06 23:33 42.36459 -71.01121 44 ft 134 kts 199°
2026-05-06 23:33 42.35536 -71.01556 621 ft 141 kts 199°
2026-05-06 23:34 42.34553 -71.01889 1491 ft 151 kts 189°
2026-05-06 23:34 42.33555 -71.01573 1983 ft 155 kts 158°
2026-05-06 23:34 42.32717 -71.00247 1468 ft 218 kts 129°
2026-05-06 23:34 42.31913 -70.98507 2474 ft 216 kts 134°
2026-05-06 23:35 42.31052 -70.96775 3192 ft 240 kts 126°
2026-05-06 23:35 42.30560 -70.94473 3787 ft 274 kts 96°
2026-05-06 23:35 42.30837 -70.91812 4450 ft 296 kts 77°
2026-05-06 23:35 42.31431 -70.89092 5246 ft 305 kts 73°
2026-05-06 23:36 42.32062 -70.86344 6158 ft 309 kts 73°
2026-05-06 23:36 42.32688 -70.83534 6923 ft 315 kts 74°
2026-05-06 23:36 42.33252 -70.80662 7680 ft 318 kts 84°
2026-05-06 23:36 42.33022 -70.77747 8447 ft 311 kts 114°
2026-05-06 23:37 42.32127 -70.75099 9141 ft 311 kts 124°
2026-05-06 23:37 42.31054 -70.72600 9822 ft 314 kts 127°
2026-05-06 23:37 42.29910 -70.70037 10223 ft 325 kts 131°
2026-05-06 23:37 42.28285 -70.67903 10356 ft 330 kts 156°
2026-05-06 23:38 42.26147 -70.66716 10534 ft 337 kts 168°
2026-05-06 23:38 42.23901 -70.65759 11067 ft 340 kts 169°
2026-05-06 23:38 42.21645 -70.64772 11668 ft 341 kts 168°
2026-05-06 23:38 42.19385 -70.63753 12325 ft 343 kts 168°
2026-05-06 23:39 42.17115 -70.62732 13024 ft 345 kts 169°
2026-05-06 23:39 42.14853 -70.61829 13686 ft 341 kts 177°
2026-05-06 23:39 42.12557 -70.61999 14290 ft 326 kts 202°
2026-05-06 23:39 42.10403 -70.62961 14940 ft 328 kts 203°
2026-05-06 23:40 42.08211 -70.63878 15568 ft 332 kts 202°
2026-05-06 23:40 42.05997 -70.64794 16202 ft 335 kts 202°
2026-05-06 23:40 42.03980 -70.65649 16770 ft 337 kts 202°
2026-05-06 23:40 42.01737 -70.66617 17409 ft 340 kts 203°
2026-05-06 23:41 41.99518 -70.67580 17779 ft 327 kts 203°
2026-05-06 23:41 41.97460 -70.68485 17705 ft 316 kts 204°
2026-05-06 23:41 41.95419 -70.69396 17645 ft 307 kts 204°
2026-05-06 23:41 41.93346 -70.70336 17684 ft 330 kts 204°
2026-05-06 23:42 41.91109 -70.71343 17855 ft 346 kts 203°
2026-05-06 23:42 41.88801 -70.72360 18399 ft 350 kts 203°
2026-05-06 23:42 41.86479 -70.73380 18952 ft 352 kts 203°
2026-05-06 23:42 41.84158 -70.74423 19492 ft 352 kts 206°
2026-05-06 23:43 41.81986 -70.75888 20014 ft 346 kts 213°
2026-05-06 23:43 41.79881 -70.77442 19850 ft 345 kts 213°
2026-05-06 23:43 41.77813 -70.78991 19868 ft 338 kts 214°
2026-05-06 23:43 41.75786 -70.80514 19855 ft 339 kts 214°
2026-05-06 23:44 41.73732 -70.82056 19859 ft 339 kts 214°
2026-05-06 23:44 41.71677 -70.83599 19854 ft 339 kts 214°
2026-05-06 23:44 41.69617 -70.85142 19857 ft 339 kts 214°
2026-05-06 23:44 41.67560 -70.86682 19853 ft 339 kts 214°
2026-05-06 23:45 41.65503 -70.88220 19855 ft 338 kts 214°
2026-05-06 23:45 41.63447 -70.89758 19852 ft 339 kts 214°
2026-05-06 23:45 41.61393 -70.91292 19858 ft 339 kts 214°
2026-05-06 23:45 41.59335 -70.92828 19862 ft 338 kts 214°
2026-05-06 23:46 41.57308 -70.94340 19863 ft 338 kts 214°
2026-05-06 23:46 41.55299 -70.95958 19859 ft 335 kts 221°
2026-05-06 23:46 41.53664 -70.98119 19861 ft 330 kts 232°
2026-05-06 23:46 41.52182 -71.00456 19876 ft 330 kts 232°
2026-05-06 23:47 41.50697 -71.02786 19880 ft 330 kts 232°
2026-05-06 23:47 41.49223 -71.05137 19867 ft 330 kts 233°
2026-05-06 23:47 41.47763 -71.07493 19857 ft 329 kts 233°
2026-05-06 23:47 41.46310 -71.09847 19861 ft 329 kts 233°
2026-05-06 23:48 41.44912 -71.12115 19863 ft 329 kts 233°
2026-05-06 23:48 41.43482 -71.14437 19857 ft 329 kts 233°
2026-05-06 23:48 41.42032 -71.16790 19860 ft 329 kts 233°
2026-05-06 23:48 41.40582 -71.19139 19857 ft 328 kts 233°
2026-05-06 23:49 41.39131 -71.21489 19861 ft 328 kts 233°
2026-05-06 23:49 41.37681 -71.23835 19862 ft 328 kts 233°
2026-05-06 23:49 41.36229 -71.26184 19862 ft 328 kts 233°
2026-05-06 23:49 41.34778 -71.28527 19861 ft 328 kts 233°
2026-05-06 23:50 41.33330 -71.30865 19872 ft 328 kts 233°
2026-05-06 23:50 41.30447 -71.35514 19872 ft 328 kts 233°
2026-05-06 23:50 41.28994 -71.37854 19871 ft 327 kts 233°
2026-05-06 23:51 41.27546 -71.40185 19874 ft 327 kts 233°
2026-05-06 23:51 41.26098 -71.42513 19870 ft 327 kts 233°
2026-05-06 23:51 41.24646 -71.44848 19872 ft 328 kts 233°
2026-05-06 23:51 41.23198 -71.47174 19870 ft 327 kts 233°
2026-05-06 23:52 41.21747 -71.49502 19870 ft 327 kts 233°
2026-05-06 23:52 41.20297 -71.51826 19870 ft 327 kts 233°
2026-05-06 23:52 41.18867 -71.54118 19870 ft 327 kts 233°
2026-05-06 23:52 41.17523 -71.56527 19875 ft 323 kts 242°
2026-05-06 23:53 41.16709 -71.59242 19882 ft 322 kts 256°
2026-05-06 23:53 41.16284 -71.62168 19897 ft 323 kts 258°
2026-05-06 23:53 41.15851 -71.65093 19860 ft 323 kts 258°
2026-05-06 23:53 41.15440 -71.68013 19865 ft 322 kts 259°
2026-05-06 23:54 41.15057 -71.70937 19869 ft 322 kts 259°
2026-05-06 23:54 41.14691 -71.73868 19869 ft 322 kts 259°
2026-05-06 23:54 41.14331 -71.76794 19872 ft 322 kts 259°
2026-05-06 23:54 41.13978 -71.79660 19869 ft 321 kts 259°
2026-05-06 23:55 41.12898 -71.88371 19870 ft 321 kts 259°
2026-05-06 23:55 41.12535 -71.91282 19868 ft 320 kts 259°
2026-05-06 23:56 41.12172 -71.94188 19868 ft 320 kts 259°
2026-05-06 23:56 41.11808 -71.97095 19869 ft 320 kts 259°
2026-05-06 23:56 41.11443 -72.00005 19870 ft 320 kts 259°
2026-05-06 23:56 41.11079 -72.02906 19871 ft 319 kts 259°
2026-05-06 23:57 41.10714 -72.05806 19872 ft 319 kts 259°
2026-05-06 23:57 41.10352 -72.08667 19869 ft 319 kts 259°
2026-05-06 23:57 41.09986 -72.11561 19868 ft 318 kts 259°
2026-05-06 23:57 41.09476 -72.14327 19831 ft 299 kts 253°
2026-05-06 23:58 41.08829 -72.16862 19791 ft 282 kts 251°
2026-05-06 23:58 41.08188 -72.19263 19884 ft 272 kts 252°
2026-05-06 23:58 41.07567 -72.21654 19910 ft 277 kts 252°
2026-05-06 23:58 41.06952 -72.24092 19713 ft 281 kts 252°
2026-05-06 23:59 41.06343 -72.26539 19536 ft 278 kts 252°
2026-05-06 23:59 41.05748 -72.28938 19363 ft 277 kts 252°
2026-05-06 23:59 41.05142 -72.31377 19011 ft 281 kts 252°
2026-05-06 23:59 41.04530 -72.33836 18594 ft 281 kts 251°
2026-05-07 00:00 41.03923 -72.36272 18375 ft 275 kts 251°
2026-05-07 00:00 41.03320 -72.38689 17971 ft 279 kts 251°
2026-05-07 00:00 41.02712 -72.41121 17632 ft 276 kts 251°
2026-05-07 00:00 41.02110 -72.43529 17234 ft 275 kts 251°
2026-05-07 00:01 41.01512 -72.45919 16892 ft 272 kts 251°
2026-05-07 00:01 41.00917 -72.48294 16524 ft 271 kts 251°
2026-05-07 00:01 41.00333 -72.50627 16182 ft 270 kts 251°
2026-05-07 00:01 40.99744 -72.52975 15826 ft 268 kts 251°
2026-05-07 00:02 40.99158 -72.55306 15476 ft 266 kts 251°
2026-05-07 00:02 40.98574 -72.57628 15123 ft 265 kts 251°
2026-05-07 00:02 40.97994 -72.59937 14765 ft 264 kts 251°
2026-05-07 00:02 40.97415 -72.62234 14422 ft 262 kts 251°
2026-05-07 00:03 40.96841 -72.64513 14077 ft 260 kts 251°
2026-05-07 00:03 40.96269 -72.66781 13738 ft 259 kts 251°
2026-05-07 00:03 40.95698 -72.69038 13382 ft 258 kts 251°
2026-05-07 00:03 40.95131 -72.71279 13050 ft 257 kts 251°
2026-05-07 00:04 40.94573 -72.73483 12715 ft 256 kts 251°
2026-05-07 00:04 40.94008 -72.75713 12384 ft 255 kts 251°
2026-05-07 00:04 40.93445 -72.77916 12245 ft 251 kts 249°
2026-05-07 00:04 40.92512 -72.79861 12155 ft 256 kts 229°
2026-05-07 00:05 40.91112 -72.81344 12134 ft 260 kts 222°
2026-05-07 00:05 40.89679 -72.82836 11976 ft 260 kts 223°
2026-05-07 00:05 40.88257 -72.84306 11891 ft 261 kts 223°
2026-05-07 00:05 40.86803 -72.85748 11706 ft 262 kts 221°
2026-05-07 00:06 40.85353 -72.87146 11518 ft 261 kts 221°
2026-05-07 00:06 40.83890 -72.88547 11340 ft 260 kts 221°
2026-05-07 00:06 40.82432 -72.89944 11174 ft 259 kts 221°
2026-05-07 00:06 40.80975 -72.91338 11010 ft 258 kts 221°
2026-05-07 00:07 40.79521 -72.92732 10813 ft 259 kts 221°
2026-05-07 00:07 40.78067 -72.94127 10626 ft 258 kts 221°
2026-05-07 00:07 40.76615 -72.95518 10428 ft 258 kts 221°
2026-05-07 00:07 40.75168 -72.96906 10219 ft 257 kts 221°
2026-05-07 00:08 40.73740 -72.98275 10003 ft 257 kts 221°
2026-05-07 00:08 40.72326 -72.99697 9784 ft 253 kts 229°
2026-05-07 00:08 40.71433 -73.01637 9480 ft 248 kts 253°
2026-05-07 00:08 40.71041 -73.03847 9217 ft 247 kts 257°
2026-05-07 00:09 40.70669 -73.06062 8922 ft 247 kts 257°
2026-05-07 00:09 40.70297 -73.08273 8636 ft 247 kts 257°
2026-05-07 00:09 40.69923 -73.10484 8358 ft 247 kts 257°
2026-05-07 00:09 40.69553 -73.12669 8094 ft 246 kts 257°
2026-05-07 00:10 40.69176 -73.14871 7819 ft 246 kts 257°
2026-05-07 00:10 40.68797 -73.17077 7542 ft 246 kts 257°
2026-05-07 00:10 40.68422 -73.19266 7267 ft 245 kts 257°
2026-05-07 00:10 40.68051 -73.21415 7014 ft 243 kts 257°
2026-05-07 00:11 40.67670 -73.23592 6747 ft 245 kts 257°
2026-05-07 00:11 40.67418 -73.25042 6566 ft 245 kts 257°
2026-05-07 00:11 40.67013 -73.27365 6280 ft 244 kts 257°
2026-05-07 00:11 40.66637 -73.29541 6012 ft 244 kts 257°
2026-05-07 00:12 40.66270 -73.31728 5735 ft 243 kts 259°
2026-05-07 00:12 40.66394 -73.33929 5419 ft 247 kts 287°
2026-05-07 00:12 40.67397 -73.35743 5134 ft 258 kts 317°
2026-05-07 00:12 40.68974 -73.36922 4862 ft 260 kts 328°
2026-05-07 00:13 40.70574 -73.37974 4546 ft 253 kts 327°
2026-05-07 00:13 40.72118 -73.39009 4240 ft 244 kts 325°
2026-05-07 00:13 40.73310 -73.40441 3967 ft 225 kts 298°
2026-05-07 00:13 40.74091 -73.42150 4040 ft 218 kts 297°
2026-05-07 00:14 40.74894 -73.43874 3992 ft 225 kts 297°
2026-05-07 00:14 40.75716 -73.45648 3684 ft 223 kts 297°
2026-05-07 00:14 40.76513 -73.47360 3418 ft 215 kts 297°
2026-05-07 00:14 40.77262 -73.48955 3164 ft 209 kts 297°
2026-05-07 00:15 40.77840 -73.50565 2915 ft 196 kts 278°
2026-05-07 00:15 40.78047 -73.52316 2659 ft 191 kts 276°
2026-05-07 00:15 40.78275 -73.54030 2416 ft 187 kts 277°
2026-05-07 00:15 40.78512 -73.55701 2153 ft 182 kts 277°
2026-05-07 00:16 40.78751 -73.57331 1962 ft 180 kts 277°
2026-05-07 00:16 40.78982 -73.58885 2129 ft 171 kts 277°
2026-05-07 00:16 40.79030 -73.60415 2177 ft 167 kts 252°
2026-05-07 00:16 40.78405 -73.61730 2084 ft 173 kts 235°
2026-05-07 00:17 40.77754 -73.63017 1973 ft 161 kts 242°
2026-05-07 00:17 40.77276 -73.64257 2002 ft 149 kts 244°
2026-05-07 00:17 40.76820 -73.65322 2012 ft 148 kts 240°
2026-05-07 00:17 40.76162 -73.66335 1974 ft 150 kts 218°
2026-05-07 00:18 40.75237 -73.66993 2077 ft 153 kts 215°
2026-05-07 00:18 40.74345 -73.67743 2101 ft 150 kts 219°
2026-05-07 00:18 40.73462 -73.68459 1986 ft 147 kts 216°
2026-05-07 00:18 40.72597 -73.69123 1881 ft 145 kts 215°
2026-05-07 00:19 40.71762 -73.69781 1695 ft 133 kts 216°
2026-05-07 00:19 40.71022 -73.70371 1523 ft 115 kts 217°
2026-05-07 00:19 40.70338 -73.70912 1386 ft 116 kts 216°
2026-05-07 00:19 40.69654 -73.71447 1228 ft 121 kts 215°
2026-05-07 00:20 40.68938 -73.72006 1070 ft 122 kts 214°
2026-05-07 00:20 40.68224 -73.72545 888 ft 122 kts 211°
2026-05-07 00:20 40.67486 -73.73135 752 ft 128 kts 212°
2026-05-07 00:21 40.66727 -73.73771 579 ft 131 kts 211°
2026-05-07 00:21 40.65928 -73.74383 418 ft 133 kts 210°
2026-05-07 00:21 40.65135 -73.74999 235 ft 131 kts 210°
2026-05-07 00:21 40.64372 -73.75601 41 ft 121 kts 210°
2026-05-07 00:22 40.63748 -73.76092 16 ft 89 kts 210°
2026-05-07 00:22 40.63365 -73.76415 16 ft 39 kts 223°
2026-05-07 00:22 40.63244 -73.76651 14 ft 30 kts 256°
2026-05-07 00:22 40.63302 -73.76859 13 ft 25 kts 301°
2026-05-07 00:23 40.63387 -73.77068 14 ft 27 kts 295°
2026-05-07 00:23 40.63480 -73.77255 14 ft 24 kts 308°
2026-05-07 00:23 40.63567 -73.77444 17 ft 21 kts 298°
2026-05-07 00:23 40.63634 -73.77582 14 ft 14 kts 314°
2026-05-07 00:24 40.63682 -73.77585 14 ft 8 kts 34°
2026-05-07 00:24 40.63763 -73.77506 15 ft 22 kts 36°
2026-05-07 00:24 40.63910 -73.77390 15 ft 26 kts 30°
2026-05-07 00:24 40.63992 -73.77329 14 ft 9 kts 28°
2026-05-07 00:25 40.64026 -73.77329 14 ft 3 kts 305°
2026-05-07 00:25 40.64056 -73.77402 14 ft 12 kts 303°
2026-05-07 00:25 40.64108 -73.77485 15 ft 8 kts 314°
2026-05-07 00:25 40.64134 -73.77516 13 ft 2 kts 321°
2026-05-07 00:26 40.64154 -73.77545 13 ft 7 kts 296°
2026-05-07 00:26 40.64157 -73.77619 13 ft 7 kts 250°
2026-05-07 00:26 40.64144 -73.77644 13 ft 0 kts 255°
2026-05-07 00:26 40.64149 -73.77654 13 ft 4 kts 318°
2026-05-07 00:27 40.64172 -73.77672 13 ft 2 kts 327°
2026-05-07 00:27 40.64176 -73.77675 13 ft 0 kts 332°
2026-05-07 00:29 40.64174 -73.77631 16 ft 15 kts 85°